This is the latest recevied weather packets stored in our database for station/object OE7BJT-13. If no packets are shown the sender has not sent any weather packets the latest 10 day(s).
| Time | Temp. | Humidity | Pressure | Rain* | Wind** | Luminosity | Snow |
|---|---|---|---|---|---|---|---|
| 1777812233 | 26.67° C | 19% | 1013 hPa | - | - | - | - |
| 1777811627 | 27.22° C | 21% | 1013 hPa | - | - | - | - |
| 1777811022 | 26.67° C | 21% | 1013 hPa | - | - | - | - |
| 1777809811 | 27.22° C | 23% | 1013 hPa | - | - | - | - |
| 1777809205 | 26.11° C | 20% | 1014 hPa | - | - | - | - |
| 1777808600 | 27.22° C | 24% | 1014 hPa | - | - | - | - |
| 1777807994 | 27.22° C | 23% | 1014 hPa | - | - | - | - |
| 1777807388 | 27.22° C | 24% | 1014 hPa | - | - | - | - |
| 1777806783 | 26.67° C | 25% | 1014 hPa | - | - | - | - |
| 1777805572 | 26.67° C | 25% | 1014 hPa | - | - | - | - |
| 1777804966 | 26.11° C | 28% | 1015 hPa | - | - | - | - |
| 1777804360 | 25.56° C | 29% | 1015 hPa | - | - | - | - |
| 1777803149 | 23.89° C | 30% | 1015 hPa | - | - | - | - |
| 1777802544 | 23.89° C | 30% | 1015 hPa | - | - | - | - |
| 1777801938 | 23.89° C | 31% | 1015 hPa | - | - | - | - |
| 1777800727 | 23.33° C | 32% | 1016 hPa | - | - | - | - |
| 1777800121 | 22.22° C | 32% | 1016 hPa | - | - | - | - |
| 1777799516 | 23.33° C | 37% | 1016 hPa | - | - | - | - |
| 1777798910 | 22.22° C | 37% | 1016 hPa | - | - | - | - |
| 1777797093 | 21.11° C | 40% | 1017 hPa | - | - | - | - |
| 1777795882 | 19.44° C | 43% | 1017 hPa | - | - | - | - |
| 1777795276 | 18.89° C | 43% | 1017 hPa | - | - | - | - |
| 1777792248 | 16.67° C | 51% | 1017 hPa | - | - | - | - |
| 1777791037 | 14.44° C | 58% | 1018 hPa | - | - | - | - |
| 1777789220 | 12.78° C | 66% | 1018 hPa | - | - | - | - |
* Rain since midnight (hover to see other rain measurements)
** Current wind speed in m/s (hover to see current wind gust speed)